QPF
0.01 0.02 0.06 0.17 0.28 0.26 0.25 0.21 0.20 0.09 0.05 0.05 0.04 0.06 0.08 0.09 0.09 0.05 0.03 0.03 0.03 0.03 0.03 0.03 0.03 0.03 0.05 0.09 0.16 0.27 0.34 0.25 0.13 0.06 0.04 0.05 0.04 0.03 0.03 0.03 0.03 0.04 0.04 0.06
0.01 0.02 0.07 0.22 0.28 0.26 0.20 0.12 0.07 0.03 0.03 0.02 0.04 0.06 0.08 0.09 0.09 0.07 0.06 0.06 0.05 0.04 0.04 0.05 0.04 0.05 0.07 0.12 0.22 0.36 0.41 0.32 0.17 0.10 0.08 0.08 0.09 0.08 0.07 0.07 0.07 0.06 0.06 0.08
0.01 0.03 0.09 0.18 0.16 0.18 0.09 0.04 0.02 0.01 0.01 0.01 0.03 0.05 0.06 0.11 0.15 0.13 0.12 0.11 0.11 0.10 0.10 0.09 0.10 0.11 0.14 0.17 0.24 0.30 0.29 0.26 0.21 0.17 0.15 0.12 0.11 0.11 0.10 0.11 0.11 0.09 0.08 0.10
0.01 0.04 0.16 0.20 0.15 0.16 0.09 0.04 0.02 0.01 0.01 0.01 0.02 0.04 0.06 0.12 0.18 0.16 0.14 0.14 0.14 0.14 0.15 0.15 0.15 0.15 0.19 0.19 0.20 0.21 0.21 0.19 0.19 0.18 0.13 0.10 0.09 0.10 0.11 0.12 0.12 0.11 0.10 0.11
0.01 0.04 0.12 0.13 0.09 0.08 0.08 0.07 0.03 0.01 0.02 0.02 0.01 0.02 0.04 0.08 0.13 0.12 0.10 0.09 0.10 0.09 0.08 0.09 0.08 0.07 0.07 0.08 0.09 0.10 0.10 0.09 0.08 0.07 0.06 0.04 0.04 0.04 0.05 0.07 0.08 0.11 0.11 0.11
0.00 0.01 0.02 0.02 0.02 0.02 0.03 0.06 0.04 0.01 0.01 0.01 0.01 0.01 0.02 0.03 0.04 0.04 0.02 0.02 0.02 0.02 0.02 0.02 0.01 0.01 0.02 0.02 0.02 0.02 0.02 0.01 0.01 0.01 0.00 0.00 0.00 0.01 0.02 0.03 0.04 0.06 0.09 0.09
0.00 0.00 0.00 0.00 0.00 0.01 0.04 0.05 0.03 0.02 0.01 0.00 0.00 0.00 0.01 0.02 0.02 0.01 0.00 0.00 0.00 0.00 0.00 0.01 0.01 0.01 0.01 0.01 0.01 0.01 0.00 0.00 0.00 0.00 0.00 0.00 0.00 0.00 0.01 0.02 0.04 0.05 0.08 0.10
0.00 0.00 0.00 0.00 0.00 0.01 0.01 0.02 0.01 0.01 0.00 0.00 0.00 0.00 0.00 0.01 0.02 0.01 0.00 0.00 0.00 0.00 0.00 0.00 0.00 0.00 0.00 0.00 0.00 0.00 0.00 0.00 0.00 0.00 0.00 0.00 0.00 0.00 0.01 0.02 0.03 0.04 0.07 0.10
0.00 0.01 0.00 0.00 0.00 0.00 0.00 0.00 0.00 0.00 0.00 0.00 0.00 0.00 0.00 0.00 0.01 0.01 0.00 0.00 0.00 0.00 0.00 0.00 0.00 0.00 0.00 0.00 0.00 0.00 0.00 0.00 0.00 0.00 0.00 0.00 0.00 0.00 0.01 0.01 0.02 0.03 0.05 0.07
0.00 0.00 0.00 0.00 0.00 0.00 0.00 0.00 0.00 0.00 0.00 0.00 0.00 0.00 0.00 0.00 0.01 0.01 0.00 0.00 0.00 0.00 0.00 0.00 0.00 0.00 0.00 0.00 0.00 0.00 0.00 0.00 0.00 0.00 0.00 0.00 0.00 0.00 0.00 0.01 0.02 0.04 0.04 0.04
0.00 0.00 0.00 0.00 0.00 0.00 0.00 0.00 0.00 0.00 0.00 0.00 0.00 0.00 0.00 0.00 0.01 0.01 0.01 0.00 0.00 0.00 0.00 0.00 0.00 0.00 0.00 0.00 0.00 0.00 0.00 0.00 0.00 0.00 0.00 0.00 0.00 0.00 0.00 0.00 0.00 0.01 0.01 0.02
0.00 0.00 0.00 0.00 0.00 0.00 0.00 0.00 0.00 0.00 0.00 0.00 0.00 0.00 0.00 0.00 0.00 0.01 0.01 0.00 0.00 0.00 0.00 0.00 0.00 0.00 0.00 0.00 0.00 0.00 0.00 0.00 0.00 0.00 0.00 0.00 0.00 0.00 0.00 0.00 0.00 0.00 0.00 0.00
0.00 0.00 0.00 0.00 0.00 0.00 0.00 0.00 0.00 0.00 0.00 0.00 0.00 0.00 0.00 0.00 0.00 0.00 0.01 0.00 0.00 0.00 0.00 0.00 0.00 0.00 0.00 0.00 0.00 0.00 0.00 0.00 0.00 0.00 0.00 0.00 0.00 0.00 0.00 0.00 0.00 0.00 0.00 0.00
0.00 0.00 0.00 0.00 0.00 0.00 0.00 0.00 0.00 0.00 0.00 0.00 0.00 0.00 0.00 0.00 0.00 0.00 0.00 0.00 0.00 0.00 0.00 0.00 0.00 0.00 0.00 0.00 0.00 0.00 0.00 0.00 0.00 0.00 0.00 0.00 0.00 0.00 0.00 0.00 0.00 0.00 0.00 0.00
0.00 0.00 0.00 0.00 0.00 0.00 0.00 0.00 0.00 0.00 0.00 0.00 0.00 0.00 0.00 0.00 0.00 0.00 0.00 0.00 0.00 0.00 0.00 0.00 0.00 0.00 0.00 0.00 0.00 0.00 0.00 0.00 0.00 0.00 0.00 0.00 0.00 0.00 0.00 0.00 0.00 0.00 0.00 0.00
0.00 0.00 0.00 0.00 0.00 0.00 0.00 0.00 0.00 0.00 0.00 0.00 0.00 0.00 0.00 0.00 0.00 0.00 0.00 0.00 0.00 0.00 0.00 0.00 0.00 0.00 0.00 0.00 0.00 0.00 0.00 0.00 0.00 0.00 0.00 0.00 0.00 0.00 0.00 0.00 0.00 0.00 0.00 0.00
0.00 0.00 0.00 0.00 0.00 0.00 0.00 0.00 0.00 0.00 0.00 0.00 0.00 0.00 0.00 0.00 0.00 0.00 0.00 0.00 0.00 0.00 0.00 0.00 0.00 0.00 0.00 0.00 0.00 0.00 0.00 0.00 0.00 0.00 0.00 0.00 0.00 0.00 0.00 0.00 0.00 0.00 0.00 0.00
0.00 0.00 0.00 0.00 0.00 0.00 0.00 0.00 0.00 0.00 0.00 0.00 0.00 0.00 0.00 0.00 0.00 0.00 0.00 0.00 0.00 0.00 0.00 0.00 0.00 0.00 0.00 0.00 0.00 0.00 0.00 0.00 0.00 0.00 0.00 0.00 0.00 0.00 0.00 0.00 0.00 0.00 0.00 0.00
0.00 0.00 0.00 0.00 0.00 0.00 0.00 0.00 0.00 0.00 0.00 0.00 0.00 0.00 0.00 0.00 0.00 0.00 0.00 0.00 0.00 0.00 0.00 0.00 0.00 0.00 0.00 0.00 0.00 0.00 0.00 0.00 0.00 0.00 0.00 0.00 0.00 0.00 0.00 0.00 0.00 0.00 0.00 0.00
0.00 0.00 0.00 0.00 0.00 0.00 0.00 0.00 0.00 0.00 0.00 0.00 0.00 0.00 0.00 0.00 0.00 0.00 0.00 0.00 0.00 0.00 0.00 0.00 0.00 0.00 0.00 0.00 0.00 0.00 0.00 0.00 0.00 0.00 0.00 0.00 0.00 0.00 0.00 0.00 0.00 0.00 0.00 0.00
0.00 0.00 0.00 0.00 0.00 0.00 0.00 0.00 0.00 0.00 0.00 0.00 0.00 0.00 0.00 0.00 0.00 0.00 0.00 0.00 0.00 0.00 0.00 0.00 0.00 0.00 0.00 0.00 0.00 0.00 0.00 0.00 0.00 0.00 0.00 0.00 0.00 0.00 0.00 0.00 0.00 0.00 0.00 0.00
0.00 0.00 0.00 0.00 0.00 0.00 0.00 0.00 0.00 0.00 0.00 0.00 0.00 0.00 0.00 0.00 0.00 0.00 0.00 0.00 0.00 0.00 0.00 0.00 0.00 0.00 0.00 0.00 0.00 0.00 0.00 0.00 0.00 0.00 0.00 0.00 0.00 0.00 0.00 0.00 0.00 0.00 0.00 0.00
0.00 0.00 0.00 0.00 0.00 0.00 0.00 0.00 0.00 0.00 0.00 0.00 0.00 0.00 0.00 0.00 0.00 0.00 0.00 0.00 0.00 0.00 0.00 0.00 0.00 0.00 0.00 0.00 0.00 0.00 0.00 0.00 0.00 0.00 0.00 0.00 0.00 0.00 0.00 0.00 0.00 0.00 0.00 0.00
0.00 0.00 0.00 0.00 0.00 0.00 0.00 0.00 0.00 0.00 0.00 0.00 0.00 0.00 0.00 0.00 0.00 0.00 0.00 0.00 0.00 0.00 0.00 0.00 0.00 0.00 0.00 0.00 0.00 0.00 0.00 0.00 0.00 0.00 0.00 0.00 0.00 0.00 0.00 0.00 0.00 0.00 0.00 0.00
0.00 0.00 0.00 0.00 0.00 0.00 0.00 0.00 0.00 0.00 0.00 0.00 0.00 0.00 0.00 0.00 0.00 0.00 0.00 0.00 0.00 0.00 0.00 0.00 0.00 0.00 0.00 0.00 0.00 0.00 0.00 0.00 0.00 0.00 0.00 0.00 0.00 0.00 0.00 0.00 0.00 0.00 0.00 0.00
0.00 0.00 0.00 0.00 0.00 0.00 0.00 0.00 0.00 0.00 0.00 0.00 0.00 0.00 0.00 0.00 0.00 0.00 0.00 0.00 0.00 0.00 0.00 0.00 0.00 0.00 0.00 0.00 0.00 0.00 0.00 0.00 0.00 0.00 0.00 0.00 0.00 0.00 0.00 0.00 0.00 0.00 0.00 0.00
0.00 0.00 0.00 0.00 0.00 0.00 0.00 0.00 0.00 0.00 0.00 0.00 0.00 0.00 0.00 0.00 0.00 0.00 0.00 0.00 0.00 0.00 0.00 0.00 0.00 0.00 0.00 0.00 0.00 0.00 0.00 0.00 0.00 0.00 0.00 0.00 0.00 0.00 0.00 0.00 0.00 0.00 0.00 0.00
MSLP
1018.50 1018.57 1018.66 1018.78 1018.89 1018.95 1018.94 1018.83 1018.57 1018.18 1017.65 1017.00 1016.27 1015.48 1014.69 1013.91 1013.17 1012.48 1011.84 1011.25 1010.70 1010.19 1009.73 1009.33 1009.00 1008.77 1008.66 1008.66 1008.79 1009.01 1009.30 1009.63 1009.95 1010.23 1010.43 1010.55 1010.59 1010.56 1010.49 1010.42 1010.38 1010.39 1010.47 1010.64
1018.96 1019.10 1019.25 1019.41 1019.54 1019.61 1019.59 1019.45 1019.17 1018.75 1018.20 1017.53 1016.78 1015.98 1015.17 1014.37 1013.61 1012.89 1012.23 1011.62 1011.06 1010.56 1010.12 1009.75 1009.47 1009.29 1009.21 1009.25 1009.40 1009.62 1009.90 1010.19 1010.45 1010.66 1010.79 1010.83 1010.78 1010.66 1010.50 1010.34 1010.21 1010.15 1010.17 1010.29
1019.55 1019.74 1019.94 1020.13 1020.28 1020.36 1020.33 1020.18 1019.89 1019.46 1018.89 1018.21 1017.44 1016.63 1015.79 1014.97 1014.18 1013.44 1012.76 1012.14 1011.58 1011.10 1010.68 1010.36 1010.12 1009.98 1009.94 1010.00 1010.15 1010.35 1010.58 1010.81 1011.00 1011.12 1011.16 1011.10 1010.96 1010.76 1010.52 1010.28 1010.07 1009.94 1009.90 1009.96
1020.25 1020.46 1020.68 1020.88 1021.03 1021.10 1021.06 1020.90 1020.60 1020.16 1019.58 1018.89 1018.11 1017.28 1016.43 1015.59 1014.78 1014.03 1013.34 1012.72 1012.18 1011.73 1011.36 1011.07 1010.88 1010.78 1010.76 1010.83 1010.95 1011.10 1011.27 1011.42 1011.52 1011.55 1011.50 1011.36 1011.14 1010.87 1010.57 1010.27 1010.01 1009.82 1009.72 1009.72
1020.97 1021.17 1021.37 1021.54 1021.66 1021.70 1021.64 1021.46 1021.13 1020.68 1020.09 1019.40 1018.62 1017.78 1016.93 1016.09 1015.29 1014.54 1013.86 1013.27 1012.77 1012.36 1012.03 1011.80 1011.64 1011.57 1011.57 1011.61 1011.70 1011.80 1011.89 1011.95 1011.97 1011.91 1011.79 1011.59 1011.33 1011.02 1010.69 1010.36 1010.07 1009.84 1009.69 1009.65
1021.59 1021.74 1021.89 1022.00 1022.06 1022.05 1021.94 1021.72 1021.37 1020.90 1020.31 1019.62 1018.85 1018.03 1017.20 1016.38 1015.60 1014.88 1014.24 1013.69 1013.23 1012.87 1012.60 1012.42 1012.31 1012.26 1012.25 1012.28 1012.33 1012.37 1012.39 1012.38 1012.32 1012.21 1012.04 1011.81 1011.53 1011.22 1010.89 1010.57 1010.27 1010.03 1009.85 1009.76
1022.01 1022.09 1022.15 1022.18 1022.17 1022.08 1021.92 1021.65 1021.27 1020.79 1020.20 1019.52 1018.78 1017.99 1017.19 1016.42 1015.68 1015.01 1014.42 1013.93 1013.53 1013.23 1013.01 1012.88 1012.80 1012.77 1012.77 1012.79 1012.80 1012.79 1012.76 1012.70 1012.59 1012.45 1012.26 1012.03 1011.77 1011.49 1011.20 1010.91 1010.63 1010.39 1010.20 1010.07
1022.15 1022.14 1022.12 1022.06 1021.96 1021.81 1021.58 1021.27 1020.87 1020.39 1019.81 1019.16 1018.45 1017.72 1016.98 1016.25 1015.58 1014.96 1014.43 1014.00 1013.66 1013.41 1013.25 1013.15 1013.11 1013.10 1013.11 1013.12 1013.11 1013.08 1013.02 1012.92 1012.80 1012.65 1012.48 1012.28 1012.06 1011.84 1011.60 1011.36 1011.13 1010.90 1010.71 1010.55
1022.00 1021.91 1021.80 1021.67 1021.51 1021.30 1021.03 1020.70 1020.30 1019.82 1019.27 1018.67 1018.02 1017.34 1016.66 1016.00 1015.38 1014.83 1014.35 1013.97 1013.68 1013.47 1013.35 1013.28 1013.27 1013.28 1013.29 1013.30 1013.29 1013.26 1013.19 1013.10 1012.99 1012.86 1012.72 1012.57 1012.41 1012.25 1012.08 1011.90 1011.71 1011.52 1011.32 1011.14
1021.59 1021.44 1021.28 1021.10 1020.90 1020.67 1020.40 1020.07 1019.69 1019.24 1018.74 1018.19 1017.60 1016.99 1016.37 1015.77 1015.21 1014.71 1014.27 1013.92 1013.65 1013.47 1013.37 1013.32 1013.32 1013.34 1013.37 1013.39 1013.40 1013.37 1013.33 1013.26 1013.17 1013.08 1012.99 1012.89 1012.80 1012.70 1012.59 1012.47 1012.33 1012.16 1011.98 1011.78
1020.99 1020.82 1020.65 1020.46 1020.27 1020.05 1019.80 1019.51 1019.17 1018.78 1018.34 1017.86 1017.34 1016.79 1016.23 1015.68 1015.16 1014.68 1014.26 1013.92 1013.65 1013.47 1013.36 1013.31 1013.31 1013.34 1013.39 1013.43 1013.45 1013.46 1013.44 1013.41 1013.37 1013.32 1013.28 1013.23 1013.19 1013.15 1013.09 1013.02 1012.91 1012.77 1012.60 1012.40
1020.30 1020.15 1020.00 1019.85 1019.70 1019.53 1019.33 1019.10 1018.83 1018.51 1018.14 1017.72 1017.27 1016.78 1016.26 1015.75 1015.25 1014.78 1014.35 1013.99 1013.70 1013.49 1013.36 1013.29 1013.28 1013.31 1013.36 1013.42 1013.47 1013.51 1013.54 1013.55 1013.56 1013.55 1013.55 1013.55 1013.55 1013.55 1013.53 1013.48 1013.40 1013.29 1013.13 1012.93
1019.61 1019.50 1019.41 1019.33 1019.25 1019.15 1019.02 1018.86 1018.66 1018.41 1018.11 1017.76 1017.36 1016.91 1016.43 1015.94 1015.44 1014.96 1014.51 1014.11 1013.79 1013.53 1013.35 1013.25 1013.21 1013.23 1013.28 1013.36 1013.44 1013.52 1013.60 1013.66 1013.71 1013.75 1013.78 1013.81 1013.84 1013.86 1013.86 1013.83 1013.78 1013.68 1013.54 1013.36
1018.96 1018.93 1018.91 1018.92 1018.91 1018.89 1018.84 1018.75 1018.62 1018.43 1018.18 1017.88 1017.52 1017.10 1016.65 1016.16 1015.66 1015.16 1014.67 1014.23 1013.85 1013.54 1013.31 1013.16 1013.09 1013.09 1013.15 1013.24 1013.35 1013.47 1013.59 1013.70 1013.79 1013.87 1013.93 1013.99 1014.03 1014.06 1014.07 1014.05 1014.01 1013.94 1013.82 1013.67
1018.40 1018.44 1018.51 1018.60 1018.67 1018.72 1018.73 1018.70 1018.60 1018.45 1018.24 1017.97 1017.64 1017.25 1016.80 1016.32 1015.81 1015.28 1014.77 1014.28 1013.85 1013.48 1013.20 1013.01 1012.91 1012.89 1012.94 1013.05 1013.19 1013.35 1013.51 1013.66 1013.80 1013.91 1014.00 1014.07 1014.12 1014.15 1014.17 1014.16 1014.14 1014.08 1014.00 1013.89
1017.91 1018.04 1018.19 1018.35 1018.48 1018.58 1018.63 1018.62 1018.55 1018.42 1018.22 1017.96 1017.64 1017.26 1016.82 1016.34 1015.82 1015.28 1014.74 1014.22 1013.75 1013.34 1013.02 1012.79 1012.66 1012.62 1012.67 1012.79 1012.96 1013.16 1013.36 1013.56 1013.73 1013.88 1013.99 1014.08 1014.14 1014.17 1014.19 1014.19 1014.18 1014.16 1014.11 1014.05
1017.49 1017.70 1017.92 1018.14 1018.32 1018.44 1018.50 1018.49 1018.42 1018.27 1018.07 1017.81 1017.49 1017.11 1016.68 1016.20 1015.69 1015.15 1014.60 1014.06 1013.57 1013.13 1012.78 1012.52 1012.37 1012.32 1012.37 1012.50 1012.70 1012.93 1013.17 1013.41 1013.62 1013.80 1013.94 1014.04 1014.11 1014.16 1014.18 1014.19 1014.20 1014.20 1014.20 1014.19
1017.11 1017.40 1017.69 1017.95 1018.15 1018.27 1018.32 1018.30 1018.20 1018.03 1017.81 1017.53 1017.21 1016.83 1016.41 1015.95 1015.45 1014.92 1014.38 1013.84 1013.34 1012.89 1012.52 1012.25 1012.08 1012.03 1012.08 1012.22 1012.44 1012.70 1012.98 1013.26 1013.51 1013.72 1013.89 1014.01 1014.10 1014.15 1014.18 1014.20 1014.23 1014.25 1014.29 1014.34
1016.78 1017.14 1017.48 1017.76 1017.97 1018.09 1018.12 1018.06 1017.93 1017.73 1017.48 1017.19 1016.86 1016.50 1016.10 1015.65 1015.18 1014.67 1014.15 1013.63 1013.13 1012.68 1012.31 1012.03 1011.85 1011.79 1011.85 1012.00 1012.23 1012.52 1012.83 1013.14 1013.43 1013.68 1013.87 1014.02 1014.12 1014.18 1014.22 1014.25 1014.29 1014.34 1014.41 1014.50
1016.46 1016.89 1017.27 1017.58 1017.80 1017.90 1017.91 1017.82 1017.65 1017.43 1017.17 1016.87 1016.54 1016.19 1015.81 1015.39 1014.95 1014.47 1013.98 1013.48 1012.99 1012.55 1012.17 1011.89 1011.71 1011.64 1011.69 1011.85 1012.10 1012.40 1012.74 1013.08 1013.40 1013.67 1013.90 1014.07 1014.18 1014.26 1014.31 1014.35 1014.41 1014.47 1014.57 1014.69
1016.16 1016.65 1017.07 1017.40 1017.62 1017.72 1017.70 1017.60 1017.41 1017.18 1016.91 1016.61 1016.30 1015.96 1015.61 1015.22 1014.81 1014.36 1013.89 1013.41 1012.94 1012.50 1012.12 1011.83 1011.64 1011.57 1011.61 1011.77 1012.02 1012.34 1012.70 1013.06 1013.40 1013.71 1013.95 1014.14 1014.28 1014.37 1014.44 1014.49 1014.55 1014.63 1014.75 1014.90
1015.87 1016.40 1016.86 1017.20 1017.43 1017.52 1017.51 1017.40 1017.21 1016.98 1016.72 1016.44 1016.14 1015.83 1015.50 1015.14 1014.76 1014.33 1013.88 1013.41 1012.95 1012.51 1012.13 1011.83 1011.63 1011.55 1011.58 1011.74 1011.98 1012.31 1012.67 1013.05 1013.41 1013.74 1014.01 1014.22 1014.38 1014.49 1014.57 1014.63 1014.71 1014.80 1014.93 1015.10
1015.56 1016.13 1016.60 1016.96 1017.19 1017.30 1017.29 1017.19 1017.03 1016.82 1016.57 1016.32 1016.05 1015.77 1015.46 1015.13 1014.76 1014.35 1013.91 1013.45 1012.99 1012.54 1012.15 1011.84 1011.63 1011.53 1011.55 1011.70 1011.94 1012.26 1012.63 1013.01 1013.39 1013.73 1014.03 1014.26 1014.44 1014.57 1014.67 1014.76 1014.85 1014.96 1015.11 1015.29
1015.23 1015.81 1016.29 1016.65 1016.89 1017.01 1017.02 1016.95 1016.82 1016.64 1016.43 1016.21 1015.98 1015.72 1015.44 1015.12 1014.76 1014.36 1013.93 1013.46 1013.00 1012.55 1012.15 1011.82 1011.60 1011.49 1011.50 1011.62 1011.85 1012.17 1012.53 1012.92 1013.31 1013.67 1013.98 1014.24 1014.44 1014.59 1014.72 1014.83 1014.95 1015.08 1015.25 1015.46
1014.86 1015.42 1015.89 1016.24 1016.49 1016.62 1016.67 1016.63 1016.54 1016.41 1016.25 1016.07 1015.86 1015.63 1015.37 1015.07 1014.72 1014.32 1013.89 1013.42 1012.95 1012.50 1012.09 1011.76 1011.52 1011.39 1011.39 1011.51 1011.72 1012.03 1012.38 1012.77 1013.16 1013.53 1013.85 1014.13 1014.35 1014.54 1014.70 1014.84 1014.99 1015.16 1015.36 1015.60
1014.42 1014.95 1015.39 1015.74 1015.98 1016.14 1016.21 1016.22 1016.17 1016.09 1015.98 1015.84 1015.68 1015.47 1015.23 1014.95 1014.60 1014.21 1013.78 1013.32 1012.84 1012.39 1011.98 1011.65 1011.41 1011.27 1011.26 1011.36 1011.56 1011.85 1012.19 1012.57 1012.95 1013.32 1013.65 1013.95 1014.20 1014.41 1014.61 1014.79 1014.98 1015.18 1015.42 1015.69
1013.92 1014.40 1014.80 1015.13 1015.38 1015.55 1015.65 1015.70 1015.71 1015.68 1015.62 1015.53 1015.40 1015.23 1015.01 1014.74 1014.42 1014.04 1013.62 1013.16 1012.71 1012.27 1011.87 1011.54 1011.30 1011.16 1011.14 1011.22 1011.40 1011.67 1011.99 1012.34 1012.71 1013.07 1013.40 1013.71 1013.98 1014.22 1014.45 1014.67 1014.90 1015.15 1015.43 1015.74
Thickness
5590 5587 5582 5578 5583 5593 5598 5601 5599 5599 5603 5608 5619 5628 5640 5650 5658 5666 5672 5679 5685 5690 5695 5701 5705 5709 5711 5711 5708 5705 5699 5693 5689 5687 5687 5686 5686 5684 5682 5680 5679 5676 5673 5671
5587 5586 5583 5577 5578 5586 5591 5594 5596 5600 5600 5608 5619 5629 5638 5645 5651 5657 5663 5670 5678 5683 5688 5690 5694 5697 5699 5700 5698 5695 5689 5685 5683 5682 5681 5680 5679 5678 5676 5675 5674 5671 5668 5666
5582 5588 5588 5573 5570 5576 5581 5583 5588 5588 5591 5605 5615 5625 5632 5638 5644 5649 5655 5661 5667 5672 5676 5679 5682 5685 5685 5685 5685 5682 5677 5675 5675 5674 5673 5673 5673 5671 5669 5667 5666 5665 5664 5662
5583 5585 5572 5566 5574 5576 5581 5582 5585 5589 5595 5604 5613 5624 5633 5636 5639 5644 5651 5655 5658 5663 5667 5670 5674 5675 5675 5675 5673 5671 5668 5667 5666 5665 5664 5664 5663 5662 5661 5660 5659 5658 5658 5657
5580 5578 5574 5576 5581 5581 5580 5584 5586 5589 5597 5606 5616 5627 5632 5639 5640 5644 5650 5653 5657 5660 5663 5665 5666 5667 5667 5666 5665 5663 5661 5660 5659 5658 5657 5656 5655 5654 5654 5653 5652 5652 5652 5652
5581 5578 5572 5575 5587 5590 5586 5587 5590 5592 5597 5605 5612 5613 5621 5636 5641 5648 5652 5655 5657 5659 5661 5661 5662 5663 5662 5659 5658 5657 5655 5654 5653 5652 5650 5649 5647 5647 5647 5647 5647 5647 5647 5647
5578 5577 5577 5585 5591 5594 5585 5583 5591 5594 5599 5604 5606 5609 5622 5635 5643 5650 5654 5656 5656 5657 5657 5658 5660 5660 5656 5654 5653 5652 5651 5649 5647 5645 5644 5643 5642 5641 5641 5641 5641 5641 5640 5640
5577 5573 5575 5592 5592 5587 5586 5592 5594 5598 5603 5607 5613 5623 5631 5639 5646 5652 5655 5658 5658 5656 5655 5656 5656 5655 5652 5649 5649 5648 5645 5643 5640 5638 5638 5636 5635 5634 5634 5633 5633 5632 5632 5631
5585 5583 5592 5596 5595 5597 5596 5596 5599 5602 5608 5613 5619 5627 5635 5642 5649 5654 5658 5658 5657 5655 5653 5653 5652 5651 5648 5647 5646 5644 5640 5636 5633 5631 5629 5627 5626 5625 5624 5624 5623 5623 5622 5621
5591 5593 5596 5598 5600 5601 5602 5602 5606 5609 5614 5619 5623 5630 5637 5644 5650 5653 5656 5657 5656 5654 5651 5649 5649 5648 5646 5645 5643 5640 5634 5630 5627 5624 5621 5618 5617 5616 5615 5614 5613 5613 5612 5610
5593 5596 5598 5600 5602 5604 5607 5609 5612 5615 5620 5624 5628 5633 5639 5643 5648 5651 5655 5655 5655 5653 5650 5648 5647 5646 5644 5642 5639 5634 5629 5626 5622 5619 5615 5612 5609 5607 5607 5605 5604 5604 5603 5601
5593 5598 5595 5598 5605 5609 5610 5613 5616 5618 5623 5628 5632 5635 5640 5643 5647 5650 5652 5654 5653 5652 5651 5649 5646 5644 5642 5639 5636 5631 5626 5622 5619 5616 5613 5609 5605 5603 5600 5600 5599 5599 5597 5596
5610 5609 5605 5607 5610 5613 5614 5617 5620 5622 5625 5628 5633 5637 5640 5643 5647 5650 5652 5653 5653 5652 5652 5650 5647 5644 5642 5639 5635 5630 5625 5621 5618 5615 5612 5608 5605 5601 5598 5596 5595 5593 5592 5591
5619 5615 5611 5611 5611 5615 5617 5619 5622 5624 5627 5630 5634 5637 5641 5644 5647 5650 5652 5655 5656 5656 5654 5652 5649 5646 5644 5640 5636 5631 5626 5623 5619 5615 5612 5609 5606 5603 5598 5595 5592 5589 5589 5588
5624 5619 5615 5616 5617 5618 5619 5620 5621 5623 5627 5630 5635 5638 5641 5644 5646 5650 5654 5658 5659 5659 5657 5655 5652 5649 5647 5643 5638 5633 5628 5624 5620 5617 5614 5611 5607 5603 5599 5595 5591 5588 5587 5587
5629 5623 5620 5619 5619 5620 5620 5621 5621 5623 5627 5630 5634 5638 5642 5645 5648 5652 5656 5659 5658 5659 5660 5659 5656 5655 5651 5646 5641 5635 5631 5629 5624 5620 5616 5613 5609 5604 5600 5595 5592 5589 5587 5586
5631 5625 5622 5620 5620 5622 5622 5622 5623 5625 5627 5631 5635 5639 5642 5646 5649 5652 5657 5660 5662 5663 5665 5664 5662 5661 5656 5650 5644 5639 5634 5631 5629 5623 5619 5615 5611 5607 5602 5598 5594 5591 5588 5588
5642 5634 5628 5626 5622 5622 5623 5624 5625 5626 5628 5632 5636 5639 5642 5645 5647 5651 5656 5660 5663 5666 5669 5669 5668 5665 5661 5655 5649 5644 5639 5634 5630 5627 5623 5619 5615 5611 5606 5602 5598 5595 5592 5591
5646 5640 5635 5632 5629 5626 5625 5625 5626 5627 5630 5632 5634 5637 5640 5644 5648 5652 5656 5659 5661 5663 5668 5672 5671 5668 5663 5659 5654 5648 5643 5638 5634 5630 5626 5623 5619 5615 5611 5607 5603 5600 5597 5594
5650 5645 5640 5636 5634 5630 5628 5627 5628 5628 5630 5632 5634 5636 5639 5644 5648 5652 5655 5658 5661 5664 5669 5673 5673 5670 5666 5661 5657 5651 5647 5642 5637 5633 5629 5625 5622 5618 5615 5611 5608 5605 5601 5598
5651 5647 5642 5638 5635 5633 5631 5629 5628 5627 5628 5630 5632 5634 5637 5642 5646 5650 5653 5657 5664 5668 5671 5674 5673 5670 5667 5663 5659 5653 5649 5645 5640 5636 5633 5629 5625 5621 5618 5614 5611 5608 5605 5602
5652 5646 5643 5639 5636 5633 5631 5629 5628 5628 5627 5628 5630 5633 5635 5639 5644 5648 5653 5656 5662 5667 5670 5671 5672 5671 5668 5664 5659 5655 5651 5647 5643 5639 5635 5632 5628 5624 5621 5617 5614 5610 5607 5604
5651 5646 5642 5639 5636 5633 5631 5629 5628 5627 5626 5626 5627 5629 5632 5636 5640 5644 5650 5657 5662 5667 5669 5671 5673 5673 5670 5665 5660 5657 5653 5649 5645 5641 5638 5635 5631 5628 5624 5620 5616 5612 5609 5605
5649 5645 5642 5639 5636 5633 5630 5629 5628 5627 5626 5626 5626 5628 5630 5633 5639 5644 5649 5655 5661 5666 5669 5672 5674 5673 5670 5665 5661 5658 5654 5650 5647 5644 5641 5637 5634 5630 5626 5622 5618 5614 5610 5607
5648 5644 5641 5638 5634 5631 5630 5629 5628 5627 5626 5625 5625 5627 5629 5631 5634 5641 5648 5654 5660 5664 5668 5671 5673 5672 5668 5665 5662 5659 5655 5652 5649 5645 5642 5639 5635 5632 5628 5624 5620 5615 5611 5607
5645 5642 5639 5637 5634 5632 5629 5628 5626 5625 5624 5623 5624 5626 5627 5630 5634 5639 5644 5650 5656 5660 5663 5666 5667 5668 5666 5664 5663 5660 5657 5654 5650 5647 5644 5640 5637 5633 5629 5625 5621 5616 5612 5608
5640 5638 5635 5633 5632 5630 5628 5627 5625 5624 5624 5623 5623 5625 5626 5628 5631 5635 5639 5644 5649 5654 5657 5660 5662 5663 5663 5663 5662 5660 5658 5655 5651 5648 5645 5641 5638 5634 5630 5626 5621 5617 5613 5608